This is the latest recevied weather packets stored in our database for station/object AB2HM. If no packets are shown the sender has not sent any weather packets the latest 10 day(s).
| Time | Temp. | Humidity | Pressure | Rain* | Wind** | Luminosity | Snow |
|---|---|---|---|---|---|---|---|
| 1787933661 | 27.22° C | 70% | 1018 hPa | 0 mm | - | - | - |
| 1787931854 | 26.67° C | 74% | 1018.2 hPa | 0 mm | - | - | - |
| 1787930045 | 25.56° C | 76% | 1018.4 hPa | 0 mm | - | - | - |
| 1787928236 | 25.56° C | 79% | 1018.4 hPa | 0 mm | - | - | - |
| 1787926431 | 25.56° C | 82% | 1018.4 hPa | 0 mm | - | - | - |
| 1787924629 | 24.44° C | 86% | 1017.9 hPa | 0 mm | - | - | - |
| 1787922829 | 23.33° C | 90% | 1017.8 hPa | 0 mm | - | - | - |
| 1787921005 | 22.78° C | 92% | 1017.7 hPa | 0 mm | - | - | - |
| 1787919192 | 22.22° C | 92% | 1017.4 hPa | 0 mm | - | - | - |
| 1787917360 | 22.22° C | 93% | 1017.1 hPa | 0 mm | - | - | - |
| 1787915554 | 21.67° C | 93% | 1016.9 hPa | 0 mm | - | - | - |
| 1787913746 | 21.11° C | 93% | 1016.6 hPa | 0 mm | - | - | - |
| 1787911947 | 21.11° C | 92% | 1016.1 hPa | 0 mm | - | - | - |
| 1787910112 | 21.11° C | 92% | 1016 hPa | 0 mm | - | - | - |
| 1787908304 | 21.11° C | 92% | 1015.8 hPa | 0 mm | - | - | - |
| 1787906480 | 21.11° C | 91% | 1015.6 hPa | 0 mm | - | - | - |
| 1787904680 | 21.67° C | 91% | 1015.7 hPa | 0 mm | - | - | - |
| 1787902859 | 21.67° C | 91% | 1016 hPa | 0 mm | - | - | - |
| 1787901057 | 21.67° C | 90% | 1016.2 hPa | 0 mm | - | - | - |
| 1787899258 | 21.67° C | 90% | 1016.3 hPa | 0 mm | - | - | - |
| 1787897447 | 21.67° C | 90% | 1016.5 hPa | 0 mm | - | - | - |
| 1787895634 | 21.67° C | 90% | 1016.6 hPa | 0 mm | - | - | - |
| 1787893819 | 22.22° C | 91% | 1017.3 hPa | 0 mm | - | - | - |
| 1787892011 | 22.22° C | 93% | 1017.6 hPa | 0 mm | - | - | - |
| 1787890209 | 21.67° C | 92% | 1017.1 hPa | 0 mm | - | - | - |
* Rain latest hour (hover to see other rain measurements)
** Current wind speed in m/s (hover to see current wind gust speed)